Cosmos 1733 - Orbit

View from above orbital plane
View from above orbital plane
View from above satellite
View from above satellite

Ground track
Ground track

The orbit data is extracted from the following two-line orbital elements,

1 16611U 86018A   13145.15472816  .00003395  00000-0  21664-3 0  6906
2 16611 082.5040 059.9352 0015476 074.1018 286.1915 15.08290287484575
Epoch (UTC): 25 May 2013 03:42:48
Eccentricity: 0.0015476
inclination: 82.5040°
perigee height: 531 km
apogee height: 552 km
right ascension of ascending node: 59.9352°
argument of perigee: 74.1018°
revolutions per day: 15.08290287
mean anomaly at epoch: 286.1915°
orbit number at epoch: 48457

The dashed part of the orbit path shows where the satellite is in the earth's shadow,  

Developed and maintained by Chris Peat, Heavens-Above GmbH. Please read the updated FAQ before sending e-mail. Imprint. DLR